Fairfield, IL

12:43 AM CDT on May 30, 2017 (GMT -0500)
Fairfield Municipal

Weather History for KFWC - October, 2012

Change the Weather History Date:

Saturday, October 27, 2012

  Actual Average (KEVV) Record (KEVV)
Temperature  
Mean Temperature 44 °F -  
Max Temperature 53 °F 65 °F 85 °F (1963)
Min Temperature 35 °F 40 °F 27 °F (1961)
Degree Days  
Heating Degree Days 21    
Moisture  
Dew Point 35 °F    
Average Humidity 72    
Maximum Humidity 87    
Minimum Humidity 51    
Precipitation  
Precipitation 0.00 in - - ()
Sea Level Pressure  
Sea Level Pressure 30.20 in    
Wind  
Wind Speed 10 mph (North)    
Max Wind Speed 18 mph    
Max Gust Speed 24 mph    
Visibility 10 miles    
Events      
Averages and records for this station are not official NWS values.
T = Trace of Precipitation, MM = Missing Value Source: NWS Daily Summary

Daily Weather History Graph

Daily Weather History Graph

Search for Another Location

Airport or City:

Trip Planner

Search our weather history database for the weather conditions in past years. The results will help you decide how hot, cold, wet, or windy it might be!

Date:

Astronomy

Oct. 27, 2012 Rise Set
Actual Time 7:15 AM CDT 5:59 PM CDT
Civil Twilight 6:48 AM CDT 6:26 PM CDT
Nautical Twilight 6:16 AM CDT 6:57 PM CDT
Astronomical Twilight 5:46 AM CDT 7:28 PM CDT
Moon 4:44 PM CDT (10/27) 5:11 AM CDT (10/27)
Length of Visible Light 11h 38m
Length of Day
10h 43m
Waxing Gibbous, 96% of the Moon is Illuminated
Oct 27
Waxing Gibbous
Oct 29
Full
Nov 6
Last Quarter
Nov 13
New
Nov 20
First Quarter

Hourly Weather History & Observations

Time (CDT) Temp. Windchill Dew Point Humidity Pressure Visibility Wind Dir Wind Speed Gust Speed Precip Events Conditions
12:15 AM 39.2 °F 33.0 °F 35.6 °F 87% 30.23 in 10.0 mi North 9.2 mph - N/A   Clear
12:35 AM 39.2 °F 33.0 °F 35.6 °F 87% 30.23 in 10.0 mi North 9.2 mph - N/A   Clear
12:55 AM 39.2 °F 32.0 °F 35.6 °F 87% 30.23 in 10.0 mi North 11.5 mph - N/A   Clear
1:15 AM 39.2 °F 33.0 °F 35.6 °F 87% 30.23 in 10.0 mi North 9.2 mph - N/A   Clear
1:35 AM 39.2 °F 32.5 °F 35.6 °F 87% 30.23 in 10.0 mi North 10.4 mph - N/A   Clear
1:55 AM 39.2 °F 32.5 °F 33.8 °F 81% 30.23 in 10.0 mi North 10.4 mph 16.1 mph N/A   Clear
2:15 AM 39.2 °F 33.0 °F 33.8 °F 81% 30.23 in 10.0 mi North 9.2 mph - N/A   Clear
2:35 AM 39.2 °F 33.0 °F 33.8 °F 81% 30.23 in 10.0 mi North 9.2 mph - N/A   Clear
2:55 AM 39.2 °F 33.6 °F 33.8 °F 81% 30.23 in 10.0 mi North 8.1 mph - N/A   Light Drizzle
3:15 AM 37.4 °F 31.4 °F 33.8 °F 87% 30.22 in 10.0 mi North 8.1 mph - N/A   Clear
3:35 AM 37.4 °F 31.4 °F 33.8 °F 87% 30.22 in 10.0 mi North 8.1 mph - N/A   Clear
3:55 AM 37.4 °F 31.4 °F 33.8 °F 87% 30.22 in 10.0 mi North 8.1 mph - N/A   Clear
4:15 AM 37.4 °F 31.4 °F 33.8 °F 87% 30.22 in 10.0 mi NNW 8.1 mph - N/A   Clear
4:35 AM 37.4 °F 31.4 °F 33.8 °F 87% 30.22 in 10.0 mi North 8.1 mph - N/A   Clear
4:55 AM 37.4 °F 31.4 °F 33.8 °F 87% 30.22 in 10.0 mi North 8.1 mph - N/A   Clear
5:15 AM 37.4 °F 30.8 °F 33.8 °F 87% 30.21 in 10.0 mi North 9.2 mph - N/A   Clear
5:35 AM 37.4 °F 31.4 °F 33.8 °F 87% 30.21 in 10.0 mi North 8.1 mph - N/A   Clear
5:55 AM 37.4 °F 30.8 °F 33.8 °F 87% 30.22 in 10.0 mi North 9.2 mph - N/A   Clear
6:15 AM 37.4 °F 31.4 °F 33.8 °F 87% 30.21 in 10.0 mi North 8.1 mph - N/A   Clear
6:55 AM 35.6 °F 29.2 °F 32.0 °F 87% 30.22 in 10.0 mi North 8.1 mph - N/A   Clear
7:15 AM 35.6 °F 29.9 °F 32.0 °F 87% 30.22 in 10.0 mi North 6.9 mph - N/A   Clear
7:35 AM 35.6 °F 29.2 °F 32.0 °F 87% 30.23 in 10.0 mi North 8.1 mph - N/A   Clear
7:55 AM 37.4 °F 31.4 °F 32.0 °F 81% 30.24 in 10.0 mi NNW 8.1 mph - N/A   Clear
8:15 AM 37.4 °F 30.8 °F 33.8 °F 87% 30.25 in 10.0 mi NNW 9.2 mph - N/A   Clear
8:35 AM 39.2 °F 31.6 °F 33.8 °F 81% 30.24 in 10.0 mi North 12.7 mph 16.1 mph N/A   Clear
8:55 AM 39.2 °F 32.5 °F 33.8 °F 81% 30.24 in 10.0 mi North 10.4 mph 16.1 mph N/A   Clear
9:15 AM 41.0 °F 34.3 °F 33.8 °F 76% 30.24 in 10.0 mi North 11.5 mph 18.4 mph N/A   Clear
9:35 AM 42.8 °F 37.0 °F 35.6 °F 76% 30.24 in 10.0 mi North 10.4 mph - N/A   Clear
9:55 AM 42.8 °F 36.2 °F 35.6 °F 76% 30.24 in 10.0 mi North 12.7 mph 18.4 mph N/A   Clear
10:15 AM 44.6 °F 38.4 °F 35.6 °F 71% 30.24 in 10.0 mi North 12.7 mph - N/A   Clear
10:35 AM 44.6 °F 38.4 °F 35.6 °F 71% 30.24 in 10.0 mi North 12.7 mph 18.4 mph N/A   Clear
10:55 AM 46.4 °F 41.5 °F 35.6 °F 66% 30.24 in 10.0 mi North 10.4 mph - N/A   Clear
11:15 AM 46.4 °F 41.5 °F 35.6 °F 66% 30.24 in 10.0 mi North 10.4 mph 17.3 mph N/A   Clear
11:35 AM 48.2 °F - 35.6 °F 62% 30.23 in 10.0 mi North 10.4 mph 17.3 mph N/A   Clear
11:55 AM 48.2 °F - 35.6 °F 62% 30.22 in 10.0 mi NNE 15.0 mph 23.0 mph N/A   Clear
12:15 PM 50.0 °F - 35.6 °F 58% 30.21 in 10.0 mi North 16.1 mph 20.7 mph N/A   Clear
12:35 PM 50.0 °F - 35.6 °F 58% 30.21 in 10.0 mi North 16.1 mph 19.6 mph N/A   Clear
12:55 PM 51.8 °F - 35.6 °F 54% 30.20 in 10.0 mi NNE 15.0 mph 20.7 mph N/A   Clear
1:15 PM 51.8 °F - 35.6 °F 54% 30.19 in 10.0 mi NNE 12.7 mph 21.9 mph N/A   Clear
1:35 PM 51.8 °F - 35.6 °F 54% 30.18 in 10.0 mi North 16.1 mph 20.7 mph N/A   Clear
1:55 PM 51.8 °F - 35.6 °F 54% 30.18 in 10.0 mi North 12.7 mph 23.0 mph N/A   Clear
2:15 PM 51.8 °F - 35.6 °F 54% 30.17 in 10.0 mi North 15.0 mph 20.7 mph N/A   Clear
2:35 PM 51.8 °F - 35.6 °F 54% 30.17 in 10.0 mi North 15.0 mph 21.9 mph N/A   Scattered Clouds
2:55 PM 53.6 °F - 35.6 °F 51% 30.16 in 10.0 mi NNW 18.4 mph 24.2 mph N/A   Scattered Clouds
3:15 PM 51.8 °F - 35.6 °F 54% 30.16 in 10.0 mi North 13.8 mph 23.0 mph N/A   Scattered Clouds
3:35 PM 51.8 °F - 35.6 °F 54% 30.16 in 10.0 mi North 13.8 mph 20.7 mph N/A   Clear
3:55 PM 51.8 °F - 35.6 °F 54% 30.16 in 10.0 mi North 15.0 mph 19.6 mph N/A   Clear
4:15 PM 51.8 °F - 35.6 °F 54% 30.16 in 10.0 mi North 15.0 mph 21.9 mph N/A   Clear
4:35 PM 51.8 °F - 35.6 °F 54% 30.16 in 10.0 mi North 13.8 mph 21.9 mph N/A   Clear
4:55 PM 51.8 °F - 35.6 °F 54% 30.17 in 10.0 mi North 13.8 mph 24.2 mph N/A   Clear
5:15 PM 50.0 °F - 35.6 °F 58% 30.17 in 10.0 mi North 12.7 mph 20.7 mph N/A   Clear
5:35 PM 48.2 °F - 35.6 °F 62% 30.18 in 10.0 mi North 10.4 mph 20.7 mph N/A   Clear
5:55 PM 48.2 °F - 35.6 °F 62% 30.18 in 10.0 mi North 11.5 mph 18.4 mph N/A   Clear
6:15 PM 46.4 °F 41.1 °F 35.6 °F 66% 30.19 in 10.0 mi North 11.5 mph 18.4 mph N/A   Clear
6:35 PM 46.4 °F 41.1 °F 35.6 °F 66% 30.19 in 10.0 mi North 11.5 mph 17.3 mph N/A   Clear
6:55 PM 46.4 °F 41.5 °F 35.6 °F 66% 30.19 in 10.0 mi North 10.4 mph - N/A   Clear
7:15 PM 46.4 °F 41.9 °F 35.6 °F 66% 30.19 in 10.0 mi North 9.2 mph - N/A   Clear
7:35 PM 44.6 °F 39.7 °F 35.6 °F 71% 30.18 in 10.0 mi North 9.2 mph - N/A   Clear
7:55 PM 44.6 °F 40.2 °F 35.6 °F 71% 30.18 in 10.0 mi North 8.1 mph - N/A   Clear
8:15 PM 44.6 °F 40.7 °F 35.6 °F 71% 30.17 in 10.0 mi North 6.9 mph - N/A   Clear
8:35 PM 44.6 °F 42.2 °F 35.6 °F 71% 30.17 in 10.0 mi North 4.6 mph - N/A   Clear
8:55 PM 42.8 °F 38.0 °F 35.6 °F 76% 30.18 in 10.0 mi North 8.1 mph - N/A   Clear
9:15 PM 42.8 °F 38.0 °F 35.6 °F 76% 30.19 in 10.0 mi NNW 8.1 mph - N/A   Clear
9:35 PM 42.8 °F 37.0 °F 33.8 °F 70% 30.19 in 10.0 mi North 10.4 mph - N/A   Clear
9:55 PM 42.8 °F 37.0 °F 33.8 °F 70% 30.18 in 10.0 mi North 10.4 mph - N/A   Clear
10:15 PM 42.8 °F 37.0 °F 33.8 °F 70% 30.18 in 10.0 mi North 10.4 mph - N/A   Clear
10:35 PM 42.8 °F 38.0 °F 33.8 °F 70% 30.18 in 10.0 mi North 8.1 mph - N/A   Clear
10:55 PM 41.0 °F 36.4 °F 33.8 °F 76% 30.18 in 10.0 mi North 6.9 mph - N/A   Clear
11:15 PM 41.0 °F 35.8 °F 33.8 °F 76% 30.18 in 10.0 mi North 8.1 mph - N/A   Clear
11:35 PM 39.2 °F 33.6 °F 33.8 °F 81% 30.18 in 10.0 mi North 8.1 mph - N/A   Clear
11:55 PM 39.2 °F 33.0 °F 33.8 °F 81% 30.18 in 10.0 mi North 9.2 mph - N/A   Clear